Regional Weather Roundup
Issued by NWS Little Rock, AR

Home | Current Version | Previous Version | Text Only | Print | Product List | Glossary On
Versions: 1 2 3 4 5 6 7 8 9 10 11 12 13 14 15 16 17 18 19 20 21 22 23 24 25 26 27 28 29 30 31 32 33 34 35 36 37 38 39 40 41 42 43 44
000
ASUS44 KLZK 221305
RWRLZK

WEATHER ROUNDUP FOR ARKANSAS
NATIONAL WEATHER SERVICE LITTLE ROCK AR
800 AM CDT WED OCT 22 2014

NOTE: "FAIR" INDICATES FEW OR NO CLOUDS BELOW 12,000 FEET WITH NO
SIGNIFICANT WEATHER AND/OR OBSTRUCTIONS TO VISIBILITY.

ARZ001-003-010-029-221400-
NORTHWEST ARKANSAS

CITY           SKY/WX    TMP DP  RH WIND       PRES   REMARKS
FAYETTEVILLE   PTCLDY    45  44  97 CALM      30.20R
FORT SMITH     CLEAR     55  51  86 E7        30.19R
HARRISON       CLEAR     47  46  97 SE7       30.23R
BENTONVILLE    CLEAR     54  48  82 CALM      30.20R
ROGERS         CLEAR     53  48  83 E8        30.20R
SILOAM SPGS    PTCLDY    52  45  76 E5        30.19R
HIGHFILL       PTCLDY    52  49  89 CALM      30.19R
SPRINGDALE     PTCLDY    50  48  93 E3        30.21R
$$

ARZ004-005-016-221400-
NORTH CENTRAL ARKANSAS

CITY           SKY/WX    TMP DP  RH WIND       PRES   REMARKS
BATESVILLE     CLEAR     46  45  93 CALM      30.24R
FLIPPIN        CLEAR     45  39  81 CALM      30.24R
MTN HOME       CLEAR     47  45  93 E5        30.23R
$$

ARZ040-041-221400-
WEST CENTRAL ARKANSAS

CITY           SKY/WX    TMP DP  RH WIND       PRES   REMARKS
MENA           CLOUDY    54  52  94 CALM      30.20R VSB<1/4
MOUNT IDA      FOG       51  51 100 CALM      30.17R VSB<1/4
$$

ARZ009-017-025-026-028-221400-
NORTHEAST ARKANSAS

CITY           SKY/WX    TMP DP  RH WIND       PRES   REMARKS
CORNING        FAIR      46  45  93 NE8       30.27R
JONESBORO      CLEAR     50  45  83 NE7       30.25R
NEWPORT        CLEAR     49  47  93 NE9       30.25R
WALNUT RIDGE   CLEAR     46  37  71 NE8       30.26R
BLYTHEVILLE    CLEAR     48  45  89 CALM      30.26R
NW BLYTHEVILLE CLEAR     46  43  87 CALM      30.25
$$

ARZ022-023-033-042-044-221400-
CENTRAL ARKANSAS

CITY           SKY/WX    TMP DP  RH WIND       PRES   REMARKS
LITTLE ROCK    CLEAR     52  47  83 E6        30.21R
N LITTLE ROCK    N/A     53  49  86 NE13      30.21R
JACKSONVILLE   CLEAR     52  48  86 NE7       30.22R
SEARCY         CLEAR     50  47  89 N6        30.24R
HOT SPRINGS    LGT RAIN  50  49  96 CALM      30.20R VSB<1/4
RUSSELLVILLE   CLEAR     53  48  83 E5        30.20R
$$

ARZ036-221400-
EAST ARKANSAS

CITY           SKY/WX    TMP DP  RH WIND       PRES   REMARKS
WEST MEMPHIS   CLEAR     49  47  93 NE3       30.22R
$$

ARZ050-053-066-070-073-221400-
SOUTHWEST ARKANSAS

CITY           SKY/WX    TMP DP  RH WIND       PRES   REMARKS
ARKADELPHIA    FAIR      53  52  97 NE6       30.20R
CAMDEN         FOG       46  45  93 CALM      30.17R VSB<1/4
TEXARKANA      CLEAR     55  54  96 NE7       30.15R FOG
EL DORADO      CLEAR     49  47  93 CALM      30.16R
DE QUEEN       FOG       53  53 100 CALM      30.16R VSB 1
$$

ARZ056-057-069-221400-
SOUTHEAST ARKANSAS

CITY           SKY/WX    TMP DP  RH WIND       PRES   REMARKS
PINE BLUFF     CLEAR     52  48  86 NE6       30.19R
STUTTGART      CLEAR     52  46  82 NE7       30.21R
MONTICELLO     CLEAR     51  48  89 NE5       30.17R

$$





USA.gov is the U.S. government's official web portal to all federal, state and local government web resources and services.